Location: Newark
(31.8769°N, 91.1411°W)
Time: 20:59:04
(UTC+00:00)

N. Korean satellite - Pass Details

Date: 01 February 2020
Orbit: 456 x 505 km, 97.2° (Epoch: 19 February)

Event Time Altitude Azimuth Distance (km) Brightness Sun altitude
Rises 12:11:19 0° 1° (N) 2,569 10.1 -10.4°
Reaches altitude 10° 12:13:29 10° 353° (N) 1,692 9.1 -9.9°
Maximum altitude 12:16:51 37° 285° (WNW) 793 7.1 -9.2°
Drops below altitude 10° 12:20:15 10° 217° (SW) 1,701 9.1 -8.5°
Sets 12:22:26 0° 209° (SSW) 2,585 10.1 -8.1°
